TimeCST,TemperatureF,Dew PointF,Humidity,Sea Level PressureIn,VisibilityMPH,Wind Direction,Wind SpeedMPH,Gust SpeedMPH,PrecipitationIn,Events,Conditions,WindDirDegrees,DateUTC
12:00 AM,-29,-37,49,29.97,10,North,2.3,,,Snow,Snow,10,2013-01-03 06:00:00
12:00 AM,-29.2,-36.4,68,29.97,10.0,North,2.3,-,N/A,,Overcast,360,2013-01-03 06:00:00
1:00 AM,-25.6,-32.8,69,29.95,15.0,South,4.6,-,N/A,,Overcast,170,2013-01-03 07:00:00
2:00 AM,-23.8,-31.0,69,29.90,15.0,SSE,8.1,-,N/A,,Overcast,160,2013-01-03 08:00:00
3:00 AM,-22.0,-29.2,69,29.89,12.0,South,4.6,-,N/A,,Overcast,190,2013-01-03 09:00:00
3:07 AM,-9999,-9999,N/A,-9999,10.0,South,4.6,-,N/A,,Overcast,170,2013-01-03 09:07:00
4:00 AM,-20.2,-27.4,69,29.85,10.0,SSE,8.1,-,N/A,,Overcast,160,2013-01-03 10:00:00
5:00 AM,-18.4,-25.6,70,29.82,10.0,SE,8.1,-,N/A,,Overcast,140,2013-01-03 11:00:00
5:35 AM,-9999,-9999,N/A,-9999,10.0,SE,6.9,-,N/A,,Unknown,140,2013-01-03 11:35:00
6:00 AM,-16,-22,60,29.78,10,SE,6.9,,,Snow,Light Snow,140,2013-01-03 12:00:00
7:25 AM,-9999,-9999,N/A,-9999,2.0,SSE,12.7,-,N/A,,Unknown,160,2013-01-03 13:25:00
8:00 AM,-11.2,-16.6,77,29.68,2.0,SE,15.0,-,N/A,Snow,Light Snow,140,2013-01-03 14:00:00
8:47 AM,-9999,-9999,N/A,-9999,1.5,SE,17.3,-,N/A,,Ice Crystals,130,2013-01-03 14:47:00
9:00 AM,-11.2,-16.6,77,29.62,1.5,SE,17.3,-,N/A,Snow,Ice Crystals,130,2013-01-03 15:00:00
10:00 AM,-9.4,-16.6,71,29.60,1.0,SE,17.3,-,N/A,Snow,Ice Crystals,140,2013-01-03 16:00:00
11:00 AM,-9.4,-14.8,77,29.57,0.8,SE,20.7,-,N/A,Snow,Ice Crystals,130,2013-01-03 17:00:00
11:21 AM,-9999,-9999,N/A,-9999,0.8,SE,20.7,-,N/A,,Ice Crystals,130,2013-01-03 17:21:00
11:45 AM,-9999,-9999,N/A,-9999,2.0,SE,19.6,-,N/A,,Ice Crystals,130,2013-01-03 17:45:00
12:00 PM,-9,-15,63,29.55,2,SE,19.6,,,Snow,Snow,130,2013-01-03 18:00:00
12:00 PM,-9.4,-14.8,77,29.55,2.0,SE,19.6,-,N/A,Snow,Ice Crystals,130,2013-01-03 18:00:00
1:00 PM,-9.4,-14.8,77,29.53,1.5,SE,18.4,-,N/A,Snow,Ice Crystals,130,2013-01-03 19:00:00
2:39 PM,-9999,-9999,N/A,-9999,1.0,ESE,18.4,-,N/A,,Ice Crystals,120,2013-01-03 20:39:00
3:00 PM,-7.6,-13.0,77,29.50,1.0,SE,17.3,-,N/A,Snow,Ice Crystals,130,2013-01-03 21:00:00
4:00 PM,-7.6,-13.0,77,29.49,1.0,ESE,15.0,-,N/A,Snow,Ice Crystals,110,2013-01-03 22:00:00
4:25 PM,-9999,-9999,N/A,-9999,3.0,ESE,16.1,-,N/A,,Ice Crystals,110,2013-01-03 22:25:00
5:00 PM,-7.6,-14.8,71,29.50,3.0,ESE,17.3,-,N/A,Snow,Ice Crystals,110,2013-01-03 23:00:00
6:00 PM,-8,-14,61,29.51,3,East,15.0,,,Snow,Snow,100,2013-01-04 00:00:00
6:00 PM,-7.6,-14.8,71,29.51,3.0,East,13.8,-,N/A,Snow,Ice Crystals,100,2013-01-04 00:00:00
7:00 PM,-9.4,-14.8,77,29.52,3.0,East,12.7,-,N/A,Snow,Ice Crystals,90,2013-01-04 01:00:00
8:00 PM,-9.4,-14.8,77,29.53,5.0,ENE,12.7,-,N/A,Snow,Ice Crystals,70,2013-01-04 02:00:00
9:00 PM,-9.4,-16.6,71,29.55,5.0,ENE,15.0,-,N/A,Snow,Ice Crystals,70,2013-01-04 03:00:00
10:00 PM,-9.4,-14.8,77,29.57,4.0,East,15.0,-,N/A,Snow,Ice Crystals,80,2013-01-04 04:00:00
11:00 PM,-9.4,-14.8,77,29.59,3.0,ENE,10.4,-,N/A,Snow,Ice Crystals,60,2013-01-04 05:00:00